Location: *
(38.9800°N, 16.0500°E)
Time: 18:39:01
(UTC+00:00)

Cosmos 1092 Rocket - Pass Details

Date: 07 April 2020
Orbit: 954 x 995 km, 83.0° (Epoch: 05 June)

Event Time Altitude Azimuth Distance (km) Brightness Sun altitude
Rises 03:31:42 0° 198° (SSW) 3,698 6.7 -11.9°
Reaches altitude 10° 03:34:16 10° 202° (SSW) 2,752 6.0 -11.5°
Maximum altitude 03:40:29 57° 280° (W) 1,163 4.1 -10.3°
Drops below altitude 10° 03:46:42 10° 358° (N) 2,756 6.6 -9.2°
Sets 03:49:17 0° 3° (N) 3,703 7.3 -8.7°
